Darstellungsparameter: Aktuell verwendete Einstellungen:
Skalierung der Graphiken ... ?
xyx+y,   Skalierungsfaktor:      Skalierung: Modus: x, Faktor: 1
Darstellungszeitraum ... ?
Vom - - bis: - -   Zeitraum: 03.08.2019 - 02.08.2020
Min/Max/Avg-Anzeige ... ?
Zeige MMA aktuell
Zeige MMA Monat
Zeige MMA alles
Zeige --A aktuell
Zeige --A Monat
Zeige --A alles
Keine MMA-Anzeige
MMA:
Keine MMA-Graphiken
MMA-Basis: 03.08.2019 - 02.08.2020
Quicknavigation für Darstellung... ?
Tage:      1T, 2T, 3T, 5T -1T -2T -3T -5T +1T +2T +3T +5T
Wochen: 1W, 2W, 3W -1W -2W -3W +1W +2W +3W
Monate: 1M, 3M, 6M -1M -3M -6M +1M +3M +6M
Jahre:    1J, 3J, 5J, 10J -1J -3J -5J -10J +1J +3J +5J +10J
Nutze für die Darstellung ... ?
Originaldaten oder ...
Mittelwerte Minima Maxima auf...
Stundenbasis Tagesbasis Wochenbasis
Monatsbasis Jahresbasis      Datenbasis: Maxima auf Tagesbasis
Darstellen als:
Statistik (Auto) Statistik J:M      Darstellung:
Zur Graphik,    zurück zur Übersicht aller Sensoren.
 
Tabellarische Datenbersicht: ?
 
Sensor: Nr:Datum:Temp:Feuchte:
Aussen-T/F 1 03-08-2019 00:00:00 26.5 C 36 %
2 04-08-2019 00:00:00 32.5 C 45 %
3 05-08-2019 00:00:00 29.6 C 49 %
4 06-08-2019 00:00:00 27.7 C 57 %
5 07-08-2019 00:00:00 24.7 C 62 %
6 08-08-2019 00:00:00 28.5 C 48 %
7 09-08-2019 00:00:00 27.8 C 61 %
8 10-08-2019 00:00:00 27.4 C 64 %
9 11-08-2019 00:00:00 24.1 C 48 %
10 12-08-2019 00:00:00 24.8 C 51 %
11 13-08-2019 00:00:00 22.9 C 51 %
12 14-08-2019 00:00:00 25.4 C 52 %
13 15-08-2019 00:00:00 22.5 C 50 %
14 16-08-2019 00:00:00 25.5 C 54 %
15 17-08-2019 00:00:00 21.7 C 49 %
16 18-08-2019 00:00:00 25.7 C 62 %
17 19-08-2019 00:00:00 25.6 C 58 %
18 20-08-2019 00:00:00 22.1 C 51 %
19 21-08-2019 00:00:00 25 C 51 %
20 22-08-2019 00:00:00 28.3 C 51 %
21 23-08-2019 00:00:00 29.5 C 50 %
22 24-08-2019 00:00:00 31 C 49 %
23 25-08-2019 00:00:00 32.6 C 44 %
24 26-08-2019 00:00:00 32.2 C 48 %
25 27-08-2019 00:00:00 33.9 C 49 %
Sensor: Nr:Datum:Temp:Feuchte:
Aussen-T/F 26 28-08-2019 00:00:00 32.7 C 47 %
27 29-08-2019 00:00:00 29.1 C 41 %
28 30-08-2019 00:00:00 30.8 C 46 %
29 31-08-2019 00:00:00 34.5 C 47 %
30 01-09-2019 00:00:00 22.1 C 46 %
31 02-09-2019 00:00:00 23.6 C 47 %
32 03-09-2019 00:00:00 25.6 C 43 %
33 04-09-2019 00:00:00 27.7 C 50 %
34 05-09-2019 00:00:00 20.5 C 45 %
35 06-09-2019 00:00:00 23.7 C 50 %
36 07-09-2019 00:00:00 15.6 C 53 %
37 08-09-2019 00:00:00 20.3 C 64 %
38 09-09-2019 00:00:00 30.3 C 64 %
39 10-09-2019 00:00:00 26.9 C 28 %
40 11-09-2019 00:00:00 23.9 C 26 %
41 12-09-2019 00:00:00 29.1 C 20 %
42 13-09-2019 00:00:00 22.6 C 23 %
43 14-09-2019 00:00:00 30.8 C 28 %
44 15-09-2019 00:00:00 31.8 C 26 %
45 16-09-2019 00:00:00 23.3 C 20 %
46 17-09-2019 00:00:00 22.8 C 20 %
47 18-09-2019 00:00:00 23.6 C 25 %
48 19-09-2019 00:00:00 23.8 C 30 %
49 20-09-2019 00:00:00 25.6 C 26 %
50 21-09-2019 00:00:00 31.1 C 25 %
Sensor: Nr:Datum:Temp:Feuchte:
Aussen-T/F 51 22-09-2019 00:00:00 26.8 C 25 %
52 23-09-2019 00:00:00 22.8 C 30 %
53 24-09-2019 00:00:00 20.3 C 33 %
54 25-09-2019 00:00:00 20.9 C 31 %
55 26-09-2019 00:00:00 19.9 C 33 %
56 27-09-2019 00:00:00 22.8 C 32 %
57 28-09-2019 00:00:00 20.3 C 31 %
58 29-09-2019 00:00:00 19.6 C 27 %
59 30-09-2019 00:00:00 22.2 C 30 %
60 01-10-2019 00:00:00 20.4 C 32 %
61 02-10-2019 00:00:00 18.2 C 31 %
62 03-10-2019 00:00:00 13 C 36 %
63 04-10-2019 00:00:00 14.4 C 36 %
64 05-10-2019 00:00:00 12.9 C 35 %
65 06-10-2019 00:00:00 9.3 C 37 %
66 07-10-2019 00:00:00 13.4 C 37 %
67 08-10-2019 00:00:00 14.3 C 36 %
68 09-10-2019 00:00:00 14.5 C 37 %
69 10-10-2019 00:00:00 17.5 C 37 %
70 11-10-2019 00:00:00 17.1 C 38 %
71 12-10-2019 00:00:00 21.3 C 37 %
72 13-10-2019 00:00:00 25.7 C 36 %
73 14-10-2019 00:00:00 24.6 C 36 %
74 15-10-2019 00:00:00 18.6 C 37 %
75 16-10-2019 00:00:00 15.8 C 36 %
Sensor: Nr:Datum:Temp:Feuchte:
Aussen-T/F 76 17-10-2019 00:00:00 17.3 C 36 %
77 18-10-2019 00:00:00 17.5 C 37 %
78 19-10-2019 00:00:00 18.9 C 36 %
79 20-10-2019 00:00:00 14.5 C 36 %
80 21-10-2019 00:00:00 18.2 C 39 %
81 22-10-2019 00:00:00 20.2 C 38 %
82 23-10-2019 00:00:00 15.1 C 38 %
83 24-10-2019 00:00:00 20.9 C 37 %
84 25-10-2019 00:00:00 17.9 C 36 %
85 26-10-2019 00:00:00 20.9 C 38 %
86 27-10-2019 00:00:00 14.7 C 40 %
87 28-10-2019 00:00:00 8.2 C 40 %
88 29-10-2019 00:00:00 11.7 C 41 %
89 30-10-2019 00:00:00 7.6 C 42 %
90 31-10-2019 00:00:00 9.7 C 42 %
91 01-11-2019 00:00:00 10 C 43 %
92 02-11-2019 00:00:00 16.6 C 38 %
93 03-11-2019 00:00:00 16.8 C 38 %
94 04-11-2019 00:00:00 14.2 C 40 %
95 05-11-2019 00:00:00 12.5 C 39 %
96 06-11-2019 00:00:00 10.5 C 40 %
97 07-11-2019 00:00:00 10.2 C 41 %
98 08-11-2019 00:00:00 7.7 C 42 %
99 09-11-2019 00:00:00 7.2 C 43 %
100 10-11-2019 00:00:00 4.5 C 43 %
Sensor: Nr:Datum:Temp:Feuchte:
Aussen-T/F 101 11-11-2019 00:00:00 7.2 C 41 %
102 12-11-2019 00:00:00 8.4 C 42 %
103 13-11-2019 00:00:00 6.8 C 33 %
104 14-11-2019 00:00:00 9.6 C 41 %
105 15-11-2019 00:00:00 8 C 40 %
106 16-11-2019 00:00:00 4.7 C 44 %
107 17-11-2019 00:00:00 5.1 C 43 %
108 18-11-2019 00:00:00 5 C 41 %
109 19-11-2019 00:00:00 6.3 C 44 %
110 20-11-2019 00:00:00 5.1 C 43 %
111 21-11-2019 00:00:00 4.4 C 44 %
112 22-11-2019 00:00:00 6 C 44 %
113 23-11-2019 00:00:00 8.4 C 42 %
114 24-11-2019 00:00:00 5.1 C 44 %
115 25-11-2019 00:00:00 7 C 43 %
116 26-11-2019 00:00:00 11.1 C 43 %
117 27-11-2019 00:00:00 13.1 C 41 %
118 28-11-2019 00:00:00 12.2 C 35 %
119 29-11-2019 00:00:00 8.9 C 42 %
120 30-11-2019 00:00:00 2.4 C 45 %
121 01-12-2019 00:00:00 3.9 C 44 %
122 02-12-2019 00:00:00 4.7 C 45 %
123 03-12-2019 00:00:00 6.4 C 42 %
124 04-12-2019 00:00:00 2.3 C 45 %
125 05-12-2019 00:00:00 0.2 C 45 %
Sensor: Nr:Datum:Temp:Feuchte:
Aussen-T/F 126 06-12-2019 00:00:00 7 C 43 %
127 07-12-2019 00:00:00 10 C 38 %
128 08-12-2019 00:00:00 11.8 C 36 %
129 09-12-2019 00:00:00 8.8 C 39 %
130 10-12-2019 00:00:00 5.1 C 46 %
131 11-12-2019 00:00:00 4.5 C 44 %
132 12-12-2019 00:00:00 5.1 C 44 %
133 13-12-2019 00:00:00 7 C 43 %
134 14-12-2019 00:00:00 8.8 C 43 %
135 15-12-2019 00:00:00 11 C 44 %
136 16-12-2019 00:00:00 10.3 C 42 %
137 17-12-2019 00:00:00 13.8 C 40 %
138 18-12-2019 00:00:00 11.3 C 43 %
139 19-12-2019 00:00:00 8.8 C 45 %
140 20-12-2019 00:00:00 10.1 C 44 %
141 21-12-2019 00:00:00 9 C 44 %
142 22-12-2019 00:00:00 11.2 C 42 %
143 23-12-2019 00:00:00 9.3 C 37 %
144 24-12-2019 00:00:00 10.5 C 40 %
145 25-12-2019 00:00:00 8.4 C 43 %
146 26-12-2019 00:00:00 6 C 44 %
147 27-12-2019 00:00:00 6.1 C 42 %
148 28-12-2019 00:00:00 0.9 C 45 %
149 29-12-2019 00:00:00 2.2 C 44 %
150 30-12-2019 00:00:00 1.9 C 44 %
Sensor: Nr:Datum:Temp:Feuchte:
Aussen-T/F 151 31-12-2019 00:00:00 3.4 C 46 %
152 01-01-2020 00:00:00 3.2 C 46 %
153 02-01-2020 00:00:00 3.7 C 45 %
154 03-01-2020 00:00:00 9.3 C 44 %
155 04-01-2020 00:00:00 7.1 C 45 %
156 05-01-2020 00:00:00 6.7 C 44 %
157 06-01-2020 00:00:00 4.5 C 46 %
158 07-01-2020 00:00:00 7.3 C 44 %
159 08-01-2020 00:00:00 10 C 42 %
160 09-01-2020 00:00:00 13.3 C 42 %
161 10-01-2020 00:00:00 11 C 41 %
162 11-01-2020 00:00:00 7.3 C 47 %
163 12-01-2020 00:00:00 6.9 C 44 %
164 13-01-2020 00:00:00 8.1 C 44 %
165 14-01-2020 00:00:00 12.2 C 40 %
166 15-01-2020 00:00:00 13.2 C 40 %
167 16-01-2020 00:00:00 9.2 C 43 %
168 17-01-2020 00:00:00 9.3 C 46 %
169 18-01-2020 00:00:00 6.6 C 45 %
170 19-01-2020 00:00:00 5.2 C 46 %
171 20-01-2020 00:00:00 6.1 C 46 %
172 21-01-2020 00:00:00 -0.2 C 46 %
173 22-01-2020 00:00:00 0.1 C 46 %
174 23-01-2020 00:00:00 2.3 C 46 %
175 24-01-2020 00:00:00 3.2 C 46 %
Sensor: Nr:Datum:Temp:Feuchte:
Aussen-T/F 176 25-01-2020 00:00:00 4.5 C 43 %
177 26-01-2020 00:00:00 6.6 C 48 %
178 27-01-2020 00:00:00 9 C 46 %
179 28-01-2020 00:00:00 7.6 C 44 %
180 29-01-2020 00:00:00 7.5 C 40 %
181 30-01-2020 00:00:00 11.1 C 35 %
182 31-01-2020 00:00:00 14.8 C 32 %
183 01-02-2020 00:00:00 12.6 C 40 %
184 02-02-2020 00:00:00 14.5 C 44 %
185 03-02-2020 00:00:00 12.5 C 44 %
186 04-02-2020 00:00:00 6.5 C 44 %
187 05-02-2020 00:00:00 7.7 C 47 %
188 06-02-2020 00:00:00 7.4 C 47 %
189 07-02-2020 00:00:00 6.2 C 47 %
190 08-02-2020 00:00:00 5.2 C 47 %
191 09-02-2020 00:00:00 12.8 C 47 %
192 10-02-2020 00:00:00 11.3 C 45 %
193 11-02-2020 00:00:00 7.8 C 36 %
194 12-02-2020 00:00:00 7.6 C 44 %
195 13-02-2020 00:00:00 10.2 C 48 %
196 14-02-2020 00:00:00 8.2 C 47 %
197 15-02-2020 00:00:00 15.7 C 47 %
198 16-02-2020 00:00:00 20 C 35 %
199 17-02-2020 00:00:00 12.9 C 45 %
200 18-02-2020 00:00:00 10 C 35 %
Sensor: Nr:Datum:Temp:Feuchte:
Aussen-T/F 201 19-02-2020 00:00:00 8.5 C 37 %
202 20-02-2020 00:00:00 10.7 C 39 %
203 21-02-2020 00:00:00 9 C 41 %
204 22-02-2020 00:00:00 10.8 C 38 %
205 23-02-2020 00:00:00 12 C 42 %
206 24-02-2020 00:00:00 11.9 C 42 %
207 25-02-2020 00:00:00 12.4 C 44 %
208 26-02-2020 00:00:00 7.6 C 38 %
209 27-02-2020 00:00:00 5.4 C 49 %
210 28-02-2020 00:00:00 8.8 C 46 %
211 29-02-2020 00:00:00 16.4 C 45 %
212 01-03-2020 00:00:00 12.8 C 45 %
213 02-03-2020 00:00:00 15.6 C 48 %
214 03-03-2020 00:00:00 11.8 C 48 %
215 04-03-2020 00:00:00 11.5 C 46 %
216 05-03-2020 00:00:00 7.8 C 47 %
217 06-03-2020 00:00:00 7.3 C 46 %
218 07-03-2020 00:00:00 12.4 C 45 %
219 08-03-2020 00:00:00 14.1 C 40 %
220 09-03-2020 00:00:00 14.4 C 45 %
221 10-03-2020 00:00:00 13.2 C 44 %
222 11-03-2020 00:00:00 17.7 C 39 %
223 12-03-2020 00:00:00 13.9 C 42 %
224 13-03-2020 00:00:00 10.4 C 41 %
225 14-03-2020 00:00:00 14 C 50 %
Sensor: Nr:Datum:Temp:Feuchte:
Aussen-T/F 226 15-03-2020 00:00:00 21.2 C 43 %
227 16-03-2020 00:00:00 22.3 C 49 %
228 17-03-2020 00:00:00 23.9 C 43 %
229 18-03-2020 00:00:00 21.2 C 48 %
230 19-03-2020 00:00:00 25.8 C 40 %
231 20-03-2020 00:00:00 18.5 C 46 %
232 21-03-2020 00:00:00 13.3 C 47 %
233 22-03-2020 00:00:00 16.2 C 39 %
234 23-03-2020 00:00:00 15.3 C 37 %
235 24-03-2020 00:00:00 15.4 C 39 %
236 25-03-2020 00:00:00 15.7 C 37 %
237 26-03-2020 00:00:00 16.5 C 31 %
238 27-03-2020 00:00:00 20.4 C 43 %
239 28-03-2020 00:00:00 24.3 C 47 %
240 29-03-2020 00:00:00 8.4 C 42 %
241 30-03-2020 00:00:00 15.2 C 40 %
242 31-03-2020 00:00:00 16.8 C 45 %
243 01-04-2020 00:00:00 21.3 C 41 %
244 02-04-2020 00:00:00 21.3 C 43 %
245 03-04-2020 00:00:00 13.1 C 40 %
246 04-04-2020 00:00:00 20.5 C 46 %
247 05-04-2020 00:00:00 26.9 C 49 %
248 06-04-2020 00:00:00 29.7 C 45 %
249 07-04-2020 00:00:00 31 C 44 %
250 08-04-2020 00:00:00 32.6 C 46 %
Sensor: Nr:Datum:Temp:Feuchte:
Aussen-T/F 251 09-04-2020 00:00:00 31.7 C 40 %
252 10-04-2020 00:00:00 31.6 C 46 %
253 11-04-2020 00:00:00 32.1 C 36 %
254 12-04-2020 00:00:00 33.2 C 40 %
255 13-04-2020 00:00:00 16.5 C 40 %
256 14-04-2020 00:00:00 21 C 41 %
257 15-04-2020 00:00:00 26.8 C 46 %
258 16-04-2020 00:00:00 30.1 C 45 %
259 17-04-2020 00:00:00 32.1 C 45 %
260 18-04-2020 00:00:00 30.4 C 42 %
261 19-04-2020 00:00:00 22.2 C 45 %
262 20-04-2020 00:00:00 24.7 C 30 %
263 21-04-2020 00:00:00 24.8 C 30 %
264 22-04-2020 00:00:00 27.7 C 35 %
265 23-04-2020 00:00:00 31.6 C 39 %
266 24-04-2020 00:00:00 31 C 39 %
267 25-04-2020 00:00:00 27.1 C 38 %
268 26-04-2020 00:00:00 30.5 C 47 %
269 27-04-2020 00:00:00 30.1 C 45 %
270 28-04-2020 00:00:00 20.2 C 43 %
271 29-04-2020 00:00:00 22.7 C 44 %
272 30-04-2020 00:00:00 19.7 C 46 %
273 01-05-2020 00:00:00 20 C 46 %
274 02-05-2020 00:00:00 19.8 C 45 %
275 03-05-2020 00:00:00 23.3 C 48 %
Sensor: Nr:Datum:Temp:Feuchte:
Aussen-T/F 276 04-05-2020 00:00:00 16.4 C 43 %
277 05-05-2020 00:00:00 25.9 C 48 %
278 06-05-2020 00:00:00 26.9 C 47 %
279 07-05-2020 00:00:00 31.3 C 46 %
280 08-05-2020 00:00:00 32 C 44 %
281 09-05-2020 00:00:00 25 C 41 %
282 10-05-2020 00:00:00 24.2 C 45 %
283 11-05-2020 00:00:00 16.2 C 46 %
284 12-05-2020 00:00:00 22.7 C 46 %
285 13-05-2020 00:00:00 20.3 C 47 %
286 14-05-2020 00:00:00 18.7 C 43 %
287 15-05-2020 00:00:00 26.3 C 46 %
288 16-05-2020 00:00:00 26.8 C 45 %
289 17-05-2020 00:00:00 28.4 C 41 %
290 18-05-2020 00:00:00 32.8 C 43 %
291 19-05-2020 00:00:00 32.7 C 43 %
292 20-05-2020 00:00:00 31.8 C 43 %
293 21-05-2020 00:00:00 36.2 C 45 %
294 22-05-2020 00:00:00 28.4 C 42 %
295 23-05-2020 00:00:00 18.5 C 44 %
296 24-05-2020 00:00:00 19.1 C 40 %
297 25-05-2020 00:00:00 26.6 C 39 %
298 26-05-2020 00:00:00 29.9 C 46 %
299 27-05-2020 00:00:00 34.4 C 46 %
300 28-05-2020 00:00:00 32.3 C 34 %
Sensor: Nr:Datum:Temp:Feuchte:
Aussen-T/F 301 29-05-2020 00:00:00 32 C 41 %
302 30-05-2020 00:00:00 29.1 C 38 %
303 31-05-2020 00:00:00 27.6 C 40 %
304 01-06-2020 00:00:00 34.5 C 42 %
305 02-06-2020 00:00:00 38.8 C 39 %
306 03-06-2020 00:00:00 35.2 C 35 %
307 04-06-2020 00:00:00 18.9 C 45 %
308 05-06-2020 00:00:00 16.3 C 45 %
309 06-06-2020 00:00:00 23.5 C 44 %
310 07-06-2020 00:00:00 24.1 C 45 %
311 08-06-2020 00:00:00 28.2 C 46 %
312 09-06-2020 00:00:00 24.8 C 45 %
313 10-06-2020 00:00:00 22.1 C 44 %
314 11-06-2020 00:00:00 22.7 C 44 %
315 12-06-2020 00:00:00 35.1 C 45 %
316 13-06-2020 00:00:00 34.8 C 37 %
317 14-06-2020 00:00:00 23 C 39 %
318 15-06-2020 00:00:00 23 C 38 %
319 16-06-2020 00:00:00 23.5 C 43 %
320 17-06-2020 00:00:00 28 C 43 %
321 18-06-2020 00:00:00 31.2 C 44 %
322 19-06-2020 00:00:00 28 C 45 %
323 20-06-2020 00:00:00 30.6 C 43 %
324 21-06-2020 00:00:00 33.9 C 45 %
325 22-06-2020 00:00:00 32.2 C 38 %
Sensor: Nr:Datum:Temp:Feuchte:
Aussen-T/F 326 23-06-2020 00:00:00 35.7 C 45 %
327 24-06-2020 00:00:00 34.9 C 42 %
328 25-06-2020 00:00:00 32.4 C 37 %
329 26-06-2020 00:00:00 39.9 C 42 %
330 27-06-2020 00:00:00 33.7 C 40 %
331 28-06-2020 00:00:00 24 C 38 %
332 29-06-2020 00:00:00 29.1 C 45 %
333 30-06-2020 00:00:00 26.4 C 43 %
334 01-07-2020 00:00:00 29.4 C 42 %
335 02-07-2020 00:00:00 29.3 C 42 %
336 03-07-2020 00:00:00 29.5 C 45 %
337 04-07-2020 00:00:00 27.2 C 40 %
338 05-07-2020 00:00:00 31.9 C 34 %
339 06-07-2020 00:00:00 23.9 C 37 %
340 07-07-2020 00:00:00 28.3 C 46 %
341 08-07-2020 00:00:00 19.3 C 42 %
342 09-07-2020 00:00:00 32 C 42 %
343 10-07-2020 00:00:00 24.3 C 41 %
344 11-07-2020 00:00:00 26.9 C 46 %
345 12-07-2020 00:00:00 32 C 46 %
346 13-07-2020 00:00:00 35 C 43 %
347 14-07-2020 00:00:00 30.6 C 39 %
348 15-07-2020 00:00:00 27 C 44 %
349 16-07-2020 00:00:00 19.8 C 44 %
350 17-07-2020 00:00:00 31.9 C 43 %
Sensor: Nr:Datum:Temp:Feuchte:
Aussen-T/F 351 18-07-2020 00:00:00 32.1 C 45 %
352 19-07-2020 00:00:00 36.8 C 41 %
353 20-07-2020 00:00:00 29.3 C 42 %
354 21-07-2020 00:00:00 30.9 C 38 %
355 22-07-2020 00:00:00 32.7 C 45 %
356 23-07-2020 00:00:00 34.2 C 41 %
357 24-07-2020 00:00:00 29.7 C 32 %
358 25-07-2020 00:00:00 31.5 C 41 %
359 26-07-2020 00:00:00 30.8 C 42 %
360 27-07-2020 00:00:00 36.4 C 44 %
361 28-07-2020 00:00:00 31.4 C 28 %
362 29-07-2020 00:00:00 33.8 C 41 %
363 30-07-2020 00:00:00 37 C 41 %
364 31-07-2020 00:00:00 43.5 C 37 %
365 01-08-2020 00:00:00 37.1 C 42 %
366 02-08-2020 00:00:00 31.2 C 42 %
Sensor: Nr:Datum:Temp:Feuchte:
G-T/H 1 03-08-2019 00:00:00 21.2 C 60 %
2 04-08-2019 00:00:00 21.1 C 61 %
3 05-08-2019 00:00:00 24.7 C 63 %
4 06-08-2019 00:00:00 22.4 C 64 %
5 07-08-2019 00:00:00 22.1 C 65 %
6 08-08-2019 00:00:00 21.2 C 64 %
7 09-08-2019 00:00:00 20.9 C 67 %
8 10-08-2019 00:00:00 21.2 C 67 %
9 11-08-2019 00:00:00 20.5 C 66 %
10 12-08-2019 00:00:00 19.6 C 67 %
11 13-08-2019 00:00:00 20 C 67 %
12 14-08-2019 00:00:00 20.3 C 67 %
13 15-08-2019 00:00:00 19.2 C 67 %
14 16-08-2019 00:00:00 19.1 C 67 %
15 17-08-2019 00:00:00 18.9 C 69 %
16 18-08-2019 00:00:00 19.6 C 69 %
17 19-08-2019 00:00:00 21.6 C 74 %
18 20-08-2019 00:00:00 20 C 66 %
19 21-08-2019 00:00:00 19.1 C 65 %
20 22-08-2019 00:00:00 22 C 63 %
21 23-08-2019 00:00:00 22.7 C 68 %
22 24-08-2019 00:00:00 19.9 C 61 %
23 25-08-2019 00:00:00 20.2 C 65 %
24 26-08-2019 00:00:00 25.7 C 74 %
25 27-08-2019 00:00:00 22.2 C 67 %
Sensor: Nr:Datum:Temp:Feuchte:
G-T/H 26 28-08-2019 00:00:00 21.4 C 68 %
27 29-08-2019 00:00:00 21.3 C 68 %
28 30-08-2019 00:00:00 21.2 C 68 %
29 31-08-2019 00:00:00 20.9 C 67 %
30 01-09-2019 00:00:00 21.3 C 68 %
31 02-09-2019 00:00:00 20.1 C 61 %
32 03-09-2019 00:00:00 19.8 C 62 %
33 04-09-2019 00:00:00 21.2 C 60 %
34 05-09-2019 00:00:00 19.3 C 62 %
35 06-09-2019 00:00:00 18.5 C 62 %
36 07-09-2019 00:00:00 19.1 C 67 %
37 08-09-2019 00:00:00 17 C 67 %
38 09-09-2019 00:00:00 16.4 C 68 %
39 10-09-2019 00:00:00 17.1 C 70 %
40 11-09-2019 00:00:00 17.6 C 68 %
41 12-09-2019 00:00:00 19.9 C 72 %
42 13-09-2019 00:00:00 19.9 C 74 %
43 14-09-2019 00:00:00 19.3 C 73 %
44 15-09-2019 00:00:00 20.4 C 67 %
45 16-09-2019 00:00:00 19.9 C 65 %
46 17-09-2019 00:00:00 18.3 C 66 %
47 18-09-2019 00:00:00 17.4 C 65 %
48 19-09-2019 00:00:00 15.7 C 67 %
49 20-09-2019 00:00:00 14.8 C 66 %
50 21-09-2019 00:00:00 18.7 C 63 %
Sensor: Nr:Datum:Temp:Feuchte:
G-T/H 51 22-09-2019 00:00:00 16 C 63 %
52 23-09-2019 00:00:00 16.6 C 66 %
53 24-09-2019 00:00:00 16.5 C 67 %
54 25-09-2019 00:00:00 16.5 C 69 %
55 26-09-2019 00:00:00 16.7 C 71 %
56 27-09-2019 00:00:00 17.4 C 71 %
57 28-09-2019 00:00:00 17.3 C 70 %
58 29-09-2019 00:00:00 16.7 C 71 %
59 30-09-2019 00:00:00 17.5 C 71 %
60 01-10-2019 00:00:00 16.8 C 71 %
61 02-10-2019 00:00:00 16.8 C 70 %
62 03-10-2019 00:00:00 15.3 C 69 %
63 04-10-2019 00:00:00 14.4 C 72 %
64 05-10-2019 00:00:00 14.5 C 72 %
65 06-10-2019 00:00:00 14.1 C 72 %
66 07-10-2019 00:00:00 13.9 C 74 %
67 08-10-2019 00:00:00 14.5 C 75 %
68 09-10-2019 00:00:00 14.5 C 75 %
69 10-10-2019 00:00:00 14.2 C 75 %
70 11-10-2019 00:00:00 14.4 C 75 %
71 12-10-2019 00:00:00 16.6 C 74 %
72 13-10-2019 00:00:00 15.6 C 76 %
73 14-10-2019 00:00:00 18.8 C 79 %
74 15-10-2019 00:00:00 16.6 C 77 %
75 16-10-2019 00:00:00 16 C 74 %
Sensor: Nr:Datum:Temp:Feuchte:
G-T/H 76 17-10-2019 00:00:00 15.6 C 78 %
77 18-10-2019 00:00:00 15.5 C 76 %
78 19-10-2019 00:00:00 15.7 C 79 %
79 20-10-2019 00:00:00 15 C 83 %
80 21-10-2019 00:00:00 15 C 83 %
81 22-10-2019 00:00:00 14.9 C 79 %
82 23-10-2019 00:00:00 14.4 C 79 %
83 24-10-2019 00:00:00 16.5 C 80 %
84 25-10-2019 00:00:00 15.9 C 78 %
85 26-10-2019 00:00:00 16 C 75 %
86 27-10-2019 00:00:00 14.9 C 76 %
87 28-10-2019 00:00:00 13.5 C 73 %
88 29-10-2019 00:00:00 12.7 C 73 %
89 30-10-2019 00:00:00 11.7 C 69 %
90 31-10-2019 00:00:00 10.6 C 66 %
91 01-11-2019 00:00:00 10.6 C 72 %
92 02-11-2019 00:00:00 13.5 C 76 %
93 03-11-2019 00:00:00 13.3 C 76 %
94 04-11-2019 00:00:00 13.2 C 76 %
95 05-11-2019 00:00:00 12.8 C 76 %
96 06-11-2019 00:00:00 12.5 C 76 %
97 07-11-2019 00:00:00 12.4 C 76 %
98 08-11-2019 00:00:00 12.8 C 72 %
99 09-11-2019 00:00:00 13.2 C 73 %
100 10-11-2019 00:00:00 10.5 C 71 %
Sensor: Nr:Datum:Temp:Feuchte:
G-T/H 101 11-11-2019 00:00:00 10.1 C 72 %
102 12-11-2019 00:00:00 10.4 C 73 %
103 13-11-2019 00:00:00 10.2 C 73 %
104 14-11-2019 00:00:00 10.1 C 73 %
105 15-11-2019 00:00:00 10.1 C 71 %
106 16-11-2019 00:00:00 10 C 70 %
107 17-11-2019 00:00:00 9.3 C 72 %
108 18-11-2019 00:00:00 9.7 C 73 %
109 19-11-2019 00:00:00 9.6 C 73 %
110 20-11-2019 00:00:00 9.2 C 72 %
111 21-11-2019 00:00:00 8.7 C 72 %
112 22-11-2019 00:00:00 9.1 C 74 %
113 23-11-2019 00:00:00 9.5 C 74 %
114 24-11-2019 00:00:00 9.4 C 73 %
115 25-11-2019 00:00:00 9.5 C 75 %
116 26-11-2019 00:00:00 10.5 C 76 %
117 27-11-2019 00:00:00 11.4 C 76 %
118 28-11-2019 00:00:00 11.8 C 76 %
119 29-11-2019 00:00:00 11.7 C 76 %
120 30-11-2019 00:00:00 10.4 C 70 %
121 01-12-2019 00:00:00 9.2 C 71 %
122 02-12-2019 00:00:00 8.7 C 72 %
123 03-12-2019 00:00:00 9.1 C 74 %
124 04-12-2019 00:00:00 9.1 C 73 %
125 05-12-2019 00:00:00 8.7 C 70 %
Sensor: Nr:Datum:Temp:Feuchte:
G-T/H 126 06-12-2019 00:00:00 8.1 C 74 %
127 07-12-2019 00:00:00 9.7 C 75 %
128 08-12-2019 00:00:00 10.7 C 76 %
129 09-12-2019 00:00:00 10.7 C 75 %
130 10-12-2019 00:00:00 10.2 C 73 %
131 11-12-2019 00:00:00 8.9 C 74 %
132 12-12-2019 00:00:00 9.1 C 74 %
133 13-12-2019 00:00:00 8.9 C 73 %
134 14-12-2019 00:00:00 9.2 C 74 %
135 15-12-2019 00:00:00 9.8 C 75 %
136 16-12-2019 00:00:00 10.3 C 76 %
137 17-12-2019 00:00:00 11.1 C 77 %
138 18-12-2019 00:00:00 11.1 C 76 %
139 19-12-2019 00:00:00 10.2 C 75 %
140 20-12-2019 00:00:00 10.1 C 77 %
141 21-12-2019 00:00:00 10.2 C 76 %
142 22-12-2019 00:00:00 10.4 C 76 %
143 23-12-2019 00:00:00 10.4 C 76 %
144 24-12-2019 00:00:00 10.3 C 76 %
145 25-12-2019 00:00:00 10.3 C 76 %
146 26-12-2019 00:00:00 10.2 C 76 %
147 27-12-2019 00:00:00 9.8 C 76 %
148 28-12-2019 00:00:00 9.6 C 74 %
149 29-12-2019 00:00:00 7.7 C 71 %
150 30-12-2019 00:00:00 7.9 C 71 %
Sensor: Nr:Datum:Temp:Feuchte:
G-T/H 151 31-12-2019 00:00:00 7.3 C 72 %
152 01-01-2020 00:00:00 8.3 C 73 %
153 02-01-2020 00:00:00 8.1 C 72 %
154 03-01-2020 00:00:00 9.1 C 76 %
155 04-01-2020 00:00:00 9.3 C 75 %
156 05-01-2020 00:00:00 9.6 C 74 %
157 06-01-2020 00:00:00 9.6 C 74 %
158 07-01-2020 00:00:00 8.9 C 73 %
159 08-01-2020 00:00:00 9.7 C 76 %
160 09-01-2020 00:00:00 11 C 77 %
161 10-01-2020 00:00:00 11.1 C 76 %
162 11-01-2020 00:00:00 10.8 C 75 %
163 12-01-2020 00:00:00 9.5 C 74 %
164 13-01-2020 00:00:00 9.5 C 75 %
165 14-01-2020 00:00:00 10.3 C 76 %
166 15-01-2020 00:00:00 10.9 C 76 %
167 16-01-2020 00:00:00 11 C 76 %
168 17-01-2020 00:00:00 10.4 C 76 %
169 18-01-2020 00:00:00 9.8 C 76 %
170 19-01-2020 00:00:00 9 C 75 %
171 20-01-2020 00:00:00 9.2 C 75 %
172 21-01-2020 00:00:00 8.8 C 71 %
173 22-01-2020 00:00:00 7.9 C 71 %
174 23-01-2020 00:00:00 8.2 C 72 %
175 24-01-2020 00:00:00 8.3 C 72 %
Sensor: Nr:Datum:Temp:Feuchte:
G-T/H 176 25-01-2020 00:00:00 8.1 C 73 %
177 26-01-2020 00:00:00 8.1 C 74 %
178 27-01-2020 00:00:00 8.8 C 76 %
179 28-01-2020 00:00:00 8.9 C 76 %
180 29-01-2020 00:00:00 8.6 C 74 %
181 30-01-2020 00:00:00 9.3 C 76 %
182 31-01-2020 00:00:00 11.1 C 77 %
183 01-02-2020 00:00:00 11.6 C 77 %
184 02-02-2020 00:00:00 11.4 C 75 %
185 03-02-2020 00:00:00 11.6 C 75 %
186 04-02-2020 00:00:00 11.5 C 75 %
187 05-02-2020 00:00:00 9.9 C 73 %
188 06-02-2020 00:00:00 9 C 72 %
189 07-02-2020 00:00:00 8.5 C 72 %
190 08-02-2020 00:00:00 7.8 C 73 %
191 09-02-2020 00:00:00 9.5 C 75 %
192 10-02-2020 00:00:00 10 C 75 %
193 11-02-2020 00:00:00 9.7 C 74 %
194 12-02-2020 00:00:00 8.9 C 74 %
195 13-02-2020 00:00:00 8.6 C 74 %
196 14-02-2020 00:00:00 9.2 C 75 %
197 15-02-2020 00:00:00 9.4 C 75 %
198 16-02-2020 00:00:00 13.8 C 75 %
199 17-02-2020 00:00:00 12.5 C 70 %
200 18-02-2020 00:00:00 11.1 C 71 %
Sensor: Nr:Datum:Temp:Feuchte:
G-T/H 201 19-02-2020 00:00:00 10.2 C 71 %
202 20-02-2020 00:00:00 10.1 C 73 %
203 21-02-2020 00:00:00 10.1 C 72 %
204 22-02-2020 00:00:00 9.8 C 74 %
205 23-02-2020 00:00:00 10.9 C 74 %
206 24-02-2020 00:00:00 10.8 C 74 %
207 25-02-2020 00:00:00 11 C 74 %
208 26-02-2020 00:00:00 10.7 C 71 %
209 27-02-2020 00:00:00 9.7 C 75 %
210 28-02-2020 00:00:00 8.9 C 75 %
211 29-02-2020 00:00:00 10 C 76 %
212 01-03-2020 00:00:00 10.1 C 75 %
213 02-03-2020 00:00:00 10 C 75 %
214 03-03-2020 00:00:00 9.9 C 75 %
215 04-03-2020 00:00:00 9.2 C 75 %
216 05-03-2020 00:00:00 9.5 C 75 %
217 06-03-2020 00:00:00 9.5 C 75 %
218 07-03-2020 00:00:00 9.6 C 75 %
219 08-03-2020 00:00:00 10.7 C 75 %
220 09-03-2020 00:00:00 10.7 C 75 %
221 10-03-2020 00:00:00 10.9 C 76 %
222 11-03-2020 00:00:00 12.4 C 77 %
223 12-03-2020 00:00:00 12.4 C 76 %
224 13-03-2020 00:00:00 11.9 C 71 %
225 14-03-2020 00:00:00 10.9 C 71 %
Sensor: Nr:Datum:Temp:Feuchte:
G-T/H 226 15-03-2020 00:00:00 12.4 C 72 %
227 16-03-2020 00:00:00 11.3 C 70 %
228 17-03-2020 00:00:00 11.9 C 71 %
229 18-03-2020 00:00:00 11.8 C 72 %
230 19-03-2020 00:00:00 13.9 C 72 %
231 20-03-2020 00:00:00 12.8 C 69 %
232 21-03-2020 00:00:00 12.5 C 67 %
233 22-03-2020 00:00:00 10.7 C 64 %
234 23-03-2020 00:00:00 9.4 C 64 %
235 24-03-2020 00:00:00 8.5 C 65 %
236 25-03-2020 00:00:00 8.2 C 64 %
237 26-03-2020 00:00:00 8.6 C 66 %
238 27-03-2020 00:00:00 11.5 C 67 %
239 28-03-2020 00:00:00 12.4 C 64 %
240 29-03-2020 00:00:00 10.9 C 62 %
241 30-03-2020 00:00:00 9.6 C 62 %
242 31-03-2020 00:00:00 8.9 C 65 %
243 01-04-2020 00:00:00 8.8 C 64 %
244 02-04-2020 00:00:00 8.7 C 67 %
245 03-04-2020 00:00:00 10.2 C 68 %
246 04-04-2020 00:00:00 9.1 C 60 %
247 05-04-2020 00:00:00 10.1 C 64 %
248 06-04-2020 00:00:00 11.1 C 65 %
249 07-04-2020 00:00:00 16.9 C 68 %
250 08-04-2020 00:00:00 14.3 C 63 %
Sensor: Nr:Datum:Temp:Feuchte:
G-T/H 251 09-04-2020 00:00:00 16.6 C 65 %
252 10-04-2020 00:00:00 14.7 C 63 %
253 11-04-2020 00:00:00 13.8 C 63 %
254 12-04-2020 00:00:00 13.8 C 64 %
255 13-04-2020 00:00:00 13.8 C 64 %
256 14-04-2020 00:00:00 12.4 C 61 %
257 15-04-2020 00:00:00 13.8 C 63 %
258 16-04-2020 00:00:00 16.8 C 62 %
259 17-04-2020 00:00:00 18.8 C 61 %
260 18-04-2020 00:00:00 16.6 C 68 %
261 19-04-2020 00:00:00 15.2 C 66 %
262 20-04-2020 00:00:00 14.2 C 62 %
263 21-04-2020 00:00:00 13.7 C 61 %
264 22-04-2020 00:00:00 13.9 C 61 %
265 23-04-2020 00:00:00 14.1 C 61 %
266 24-04-2020 00:00:00 17.2 C 62 %
267 25-04-2020 00:00:00 15.7 C 54 %
268 26-04-2020 00:00:00 13.7 C 64 %
269 27-04-2020 00:00:00 13.8 C 60 %
270 28-04-2020 00:00:00 13.9 C 65 %
271 29-04-2020 00:00:00 14.3 C 65 %
272 30-04-2020 00:00:00 14.3 C 66 %
273 01-05-2020 00:00:00 14 C 67 %
274 02-05-2020 00:00:00 13.3 C 67 %
275 03-05-2020 00:00:00 13.4 C 66 %
Sensor: Nr:Datum:Temp:Feuchte:
G-T/H 276 04-05-2020 00:00:00 13.4 C 67 %

Maximal/Minimal-Werte vom 03.08.2019 - 02.08.2020

Sensor Min Max Avg
Temp
(Aussen-T/F)
-5 °C
29-12-2019  07:23:17
43.5 °C
31-07-2020  17:11:17
11.46 °C
Feuchte
(Aussen-T/F)
20 %
03-08-2019  09:43:17
64 %
10-08-2019  05:43:17
31.69 %
Temp
(G-T/H)
4.2 °C
04-04-2020  07:31:18
25.7 °C
26-08-2019  15:08:17
12.22 °C
Feuchte
(G-T/H)
33 %
21-09-2019  16:35:17
83 %
20-10-2019  15:57:17
68.75 %

Warnung:
When displaying minima or maxima values for days, weeks, months or years no virtual sensors will be displayed.



Die Daten stammen von einer Davis Vantage Pro 2 Wetter-Station und werden unter Linux mit der Software wview2wettercgi und aufbereitet. Alle Angaben erfolgen ohne Gewähr für ihre Vollständigkeit oder Richtigkeit.
Kontakt: Rainer Krienke krienke@uni-koblenz.de . Meine Webseiten an der Uni Koblenz oder privat.
Version: $Revision: 0.78 $